TimeEST,TemperatureF,Dew PointF,Humidity,Sea Level PressureIn,VisibilityMPH,Wind Direction,Wind SpeedMPH,Gust SpeedMPH,PrecipitationIn,Events,Conditions,WindDirDegrees,DateUTC
12:15 AM,37.4,32.4,82,30.25,10.0,Calm,Calm,-,N/A,,Overcast,0,2012-12-07 05:15:00
12:35 AM,37.9,33.1,83,30.24,10.0,ESE,3.5,-,N/A,,Overcast,110,2012-12-07 05:35:00
12:55 AM,38.5,33.6,83,30.24,10.0,SE,3.5,-,N/A,,Overcast,140,2012-12-07 05:55:00
1:15 AM,39.0,34.2,83,30.23,10.0,SSE,4.6,-,N/A,,Overcast,160,2012-12-07 06:15:00
1:35 AM,39.4,34.7,83,30.22,10.0,South,6.9,-,N/A,,Overcast,170,2012-12-07 06:35:00
1:55 AM,40.1,34.7,81,30.22,10.0,South,5.8,-,N/A,,Overcast,170,2012-12-07 06:55:00
2:15 AM,40.5,34.9,80,30.22,10.0,South,4.6,-,N/A,,Overcast,170,2012-12-07 07:15:00
2:35 AM,40.5,34.7,80,30.22,10.0,Calm,Calm,-,N/A,,Overcast,0,2012-12-07 07:35:00
2:55 AM,40.6,34.9,80,30.21,10.0,South,4.6,-,N/A,,Overcast,170,2012-12-07 07:55:00
3:15 AM,40.1,36.1,86,30.20,10.0,SSE,5.8,-,N/A,Rain,Rain,160,2012-12-07 08:15:00
3:35 AM,39.6,36.5,89,30.19,10.0,SSE,3.5,-,N/A,,Overcast,160,2012-12-07 08:35:00
3:55 AM,39.4,36.9,91,30.19,10.0,South,4.6,-,N/A,,Overcast,170,2012-12-07 08:55:00
4:15 AM,39.9,37.2,90,30.19,10.0,South,4.6,-,N/A,,Overcast,190,2012-12-07 09:15:00
4:35 AM,40.1,37.4,90,30.18,10.0,South,5.8,-,N/A,Rain,Light Rain,170,2012-12-07 09:35:00
4:55 AM,40.1,37.4,90,30.18,10.0,South,5.8,-,N/A,,Overcast,170,2012-12-07 09:55:00
5:15 AM,40.1,37.6,91,30.18,10.0,South,5.8,-,N/A,,Overcast,190,2012-12-07 10:15:00
5:35 AM,40.1,37.8,91,30.18,10.0,South,5.8,-,N/A,,Overcast,170,2012-12-07 10:35:00
5:55 AM,40.1,37.8,91,30.18,10.0,South,5.8,-,N/A,,Overcast,170,2012-12-07 10:55:00
6:15 AM,40.5,38.1,91,30.18,10.0,SSE,4.6,-,N/A,Rain,Light Rain,160,2012-12-07 11:15:00
6:35 AM,40.3,38.3,93,30.18,10.0,SSE,4.6,-,N/A,,Overcast,160,2012-12-07 11:35:00
6:55 AM,40.5,38.7,93,30.17,10.0,SSE,3.5,-,N/A,,Overcast,160,2012-12-07 11:55:00
7:15 AM,41.0,38.7,91,30.18,10.0,SSE,4.6,-,N/A,,Overcast,160,2012-12-07 12:15:00
7:35 AM,41.2,38.8,91,30.17,10.0,SSE,5.8,-,N/A,,Overcast,160,2012-12-07 12:35:00
7:55 AM,41.4,38.7,90,30.19,10.0,SSW,3.5,-,N/A,,Overcast,200,2012-12-07 12:55:00
8:15 AM,41.9,38.7,88,30.18,10.0,South,3.5,-,N/A,,Overcast,170,2012-12-07 13:15:00
8:35 AM,41.9,38.7,88,30.19,10.0,SSW,3.5,-,N/A,,Overcast,210,2012-12-07 13:35:00
8:55 AM,42.4,39.2,88,30.19,10.0,South,5.8,-,N/A,,Overcast,180,2012-12-07 13:55:00
9:15 AM,43.0,39.6,88,30.18,10.0,SSE,3.5,-,N/A,,Overcast,150,2012-12-07 14:15:00
9:35 AM,43.9,39.7,85,30.18,10.0,South,3.5,-,N/A,,Overcast,190,2012-12-07 14:35:00
9:55 AM,45.1,39.6,81,30.18,10.0,South,4.6,-,N/A,,Overcast,190,2012-12-07 14:55:00
10:15 AM,46.4,39.9,78,30.16,10.0,SSE,4.6,-,N/A,,Overcast,150,2012-12-07 15:15:00
10:35 AM,47.8,39.7,74,30.16,10.0,SSW,6.9,-,N/A,,Overcast,200,2012-12-07 15:35:00
10:55 AM,48.6,39.6,71,30.15,10.0,South,6.9,-,N/A,,Overcast,190,2012-12-07 15:55:00
11:15 AM,49.1,39.6,70,30.14,10.0,South,6.9,-,N/A,,Overcast,170,2012-12-07 16:15:00
11:35 AM,49.8,39.4,67,30.13,10.0,South,8.1,-,N/A,,Overcast,190,2012-12-07 16:35:00
11:55 AM,50.7,39.4,65,30.12,10.0,SSW,8.1,-,N/A,,Overcast,200,2012-12-07 16:55:00
12:15 PM,50.7,39.4,65,30.11,10.0,SSW,6.9,-,N/A,,Overcast,200,2012-12-07 17:15:00
12:35 PM,51.4,39.7,64,30.10,10.0,South,9.2,-,N/A,,Overcast,170,2012-12-07 17:35:00
12:55 PM,51.8,40.3,65,30.08,10.0,South,10.4,-,N/A,,Overcast,190,2012-12-07 17:55:00
1:15 PM,52.0,40.8,66,30.08,10.0,South,6.9,-,N/A,,Overcast,180,2012-12-07 18:15:00
1:35 PM,52.5,41.4,66,30.07,10.0,SSW,6.9,-,N/A,,Overcast,200,2012-12-07 18:35:00
1:55 PM,53.4,42.3,66,30.06,10.0,SW,4.6,-,N/A,,Overcast,220,2012-12-07 18:55:00
2:15 PM,53.6,42.8,67,30.06,10.0,SSW,5.8,-,N/A,,Overcast,200,2012-12-07 19:15:00
2:35 PM,53.8,42.8,66,30.05,10.0,South,3.5,-,N/A,,Overcast,180,2012-12-07 19:35:00
2:55 PM,53.8,42.8,66,30.05,10.0,South,6.9,-,N/A,,Overcast,170,2012-12-07 19:55:00
3:15 PM,53.6,42.8,67,30.05,10.0,South,4.6,-,N/A,,Overcast,180,2012-12-07 20:15:00
3:35 PM,53.2,43.0,68,30.05,10.0,SSE,3.5,-,N/A,,Overcast,150,2012-12-07 20:35:00
3:55 PM,53.1,43.0,69,30.05,10.0,South,4.6,-,N/A,,Overcast,170,2012-12-07 20:55:00
4:15 PM,53.1,43.3,70,30.05,10.0,Calm,Calm,-,N/A,,Overcast,0,2012-12-07 21:15:00
4:35 PM,53.1,43.9,71,30.05,10.0,South,5.8,-,N/A,,Overcast,180,2012-12-07 21:35:00
4:55 PM,52.0,46.4,81,30.05,10.0,South,6.9,-,N/A,Rain,Light Rain,180,2012-12-07 21:55:00
5:15 PM,50.9,47.3,87,30.05,10.0,South,4.6,-,N/A,,Overcast,180,2012-12-07 22:15:00
5:35 PM,50.4,48.6,94,30.04,7.0,SE,4.6,-,N/A,Rain,Light Rain,140,2012-12-07 22:35:00
5:55 PM,50.2,49.3,97,30.04,7.0,Calm,Calm,-,0.01,,Overcast,0,2012-12-07 22:55:00
6:15 PM,50.2,49.6,98,30.04,7.0,Calm,Calm,-,N/A,,Overcast,0,2012-12-07 23:15:00
6:35 PM,50.0,49.5,98,30.04,5.0,Calm,Calm,-,N/A,Rain,Rain,0,2012-12-07 23:35:00
6:55 PM,50.0,49.8,99,30.04,4.0,South,3.5,-,0.05,Rain,Rain,190,2012-12-07 23:55:00
7:15 PM,50.0,49.6,99,30.04,4.0,SSE,4.6,-,0.07,Rain,Light Rain,160,2012-12-08 00:15:00
7:35 PM,49.6,49.5,99,30.03,5.0,SE,3.5,-,0.07,,Drizzle,130,2012-12-08 00:35:00
7:55 PM,49.6,49.5,99,30.03,5.0,Calm,Calm,-,0.08,Rain,Rain,0,2012-12-08 00:55:00
8:15 PM,49.5,49.5,100,30.03,3.0,Calm,Calm,-,0.03,Rain,Heavy Rain,0,2012-12-08 01:15:00
8:35 PM,49.5,49.5,100,30.02,3.0,Calm,Calm,-,0.08,Rain,Rain,0,2012-12-08 01:35:00
8:55 PM,49.6,49.6,100,30.02,2.0,SE,3.5,-,0.14,Rain,Light Rain,130,2012-12-08 01:55:00
9:15 PM,49.6,49.6,100,30.01,2.5,SE,3.5,-,0.02,Rain,Light Rain,140,2012-12-08 02:15:00
9:35 PM,50.0,50.0,100,30.01,4.0,Calm,Calm,-,0.02,,Drizzle,0,2012-12-08 02:35:00
9:55 PM,50.2,50.2,100,30.00,2.5,Calm,Calm,-,0.03,,Drizzle,0,2012-12-08 02:55:00
10:15 PM,50.0,50.0,100,30.00,2.5,Calm,Calm,-,N/A,,Drizzle,0,2012-12-08 03:15:00
10:35 PM,50.2,50.2,100,30.00,3.0,Calm,Calm,-,N/A,,Overcast,0,2012-12-08 03:35:00
10:55 PM,50.2,50.2,100,29.99,4.0,Calm,Calm,-,N/A,,Overcast,0,2012-12-08 03:55:00
11:35 PM,50.0,50.0,100,29.99,7.0,Calm,Calm,-,N/A,,Overcast,0,2012-12-08 04:35:00
11:55 PM,50.2,50.2,100,29.98,7.0,Calm,Calm,-,N/A,,Overcast,0,2012-12-08 04:55:00